Regional Weather Roundup
Issued by NWS

Home | Current Version | Previous Version | Text Only | Print | Product List | Glossary On
Versions: 1 2 3 4 5 6 7 8 9 10 11 12 13 14 15 16 17 18 19 20 21 22 23 24 25 26 27 28 29 30 31 32 33 34 35 36 37 38 39 40 41 42 43 44 45 46 47 48 49 50
846
ASUS46 KSEW 131120
RWRWA

WASHINGTON REGIONAL WEATHER ROUNDUP
NATIONAL WEATHER SERVICE SEATTLE WA
300 AM PST WED NOV 13 2019

NOTE:"FAIR" INDICATES FEW OR NO CLOUDS BELOW 12,000 FEET WITH NO
SIGNIFICANT WEATHER AND/OR OBSTRUCTIONS TO VISIBILITY.

WAZ507-509-555>559-131200-
SEATTLE, TACOMA, EVERETT, AND VICINITY

CITY           SKY/WX    TMP DP  RH WIND       PRES   REMARKS
EVERETT        CLOUDY    49  47  93 E5        30.19R
BOEING FIELD   CLOUDY    51  49  92 NW3       30.18S
RENTON         CLOUDY    51  49  92 CALM      30.18S FOG
SEATAC AIRPORT FOG       51  49  92 N6        30.17F VSB 1/2
JBLM-MCCHORD   CLOUDY    50  50 100 CALM      30.16F FOG
PUYALLUP       FOG       52  52 100 CALM      30.17S VSB 3/4
BREMERTON      FOG       45  45 100 CALM      30.18S VSB 3/4
JBLM-FT LEWIS  FOG       50  50 100 CALM      30.16F VSB 3/8
TACOMA NARROWS FOG       49  49 100 CALM      30.18R VSB 1/4
$$

WAZ001-503-506-510-514-515-131200-
NORTH INTERIOR

CITY           SKY/WX    TMP DP  RH WIND       PRES   REMARKS
BELLINGHAM     CLOUDY    51  46  83 CALM      30.19S HAZE
FRIDAY HARBOR  MOCLDY    47  46  97 CALM      30.20S
EASTSOUND      CLOUDY    50  50 100 CALM      30.19S
PORT ANGELES   CLOUDY    47  47 100 CALM      30.20S FOG
EDIZ HOOK      CLOUDY    48  47  99 CALM      30.20S
PORT TOWNSEND  CLOUDY    45  45 100 CALM      30.18S
NAS WHIDBEY    CLOUDY    51  47  86 CALM      30.23R
ARLINGTON      CLOUDY    48  47  96 CALM      30.19S
BURLINGTON     CLOUDY    48  48 100 CALM      30.20S
$$

WAZ020-022-039-040-504-511-512-131200-
SOUTHWEST INTERIOR

CITY           SKY/WX    TMP DP  RH WIND       PRES   REMARKS
SHELTON        CLOUDY    47  47 100 CALM      30.15S FOG
OLYMPIA        FOG       49  48  97 N7        30.17S VSB 1/2
CHEHALIS       CLOUDY    50  50 100 CALM      30.16S FOG
KELSO          FOG       46  45  93 CALM      30.16F VSB 1
VANCOUVER      CLOUDY    51  46  83 W3        30.14F
SCAPPOOSE, OR  FOG       46  46 100 N3        30.14F VSB 1/4
PORTLAND, OR   CLOUDY    50  47  89 CALM      30.15F
$$

WAZ021-516-517-131200-
WASHINGTON COAST

CITY           SKY/WX    TMP DP  RH WIND       PRES   REMARKS
FORKS          CLOUDY    49  49 100 CALM      30.15F
HOQUIAM        CLOUDY    51  51 100 NE5       30.16R FOG
ASTORIA, OR    PTCLDY    45  45 100 E3        30.12F FOG
$$

WAZ019-023-024-040-567>569-131200-
CASCADE MOUNTAINS AND COLUMBIA GORGE

CITY           SKY/WX    TMP DP  RH WIND       PRES   REMARKS
STAMPEDE PASS  FOG       41  39  93 VRB3      30.14S VSB 1/4
TROUTDALE, OR  CLOUDY    50  46  86 CALM      30.14F
HOOD RIVER, OR CLOUDY    41  41 100 CALM      30.16S
THE DALLES, OR CLOUDY    43  39  86 NE7       30.17S
$$

WAZ026-027-041>044-520-521-131200-
EAST SLOPES

CITY           SKY/WX    TMP DP  RH WIND       PRES   REMARKS
OMAK           PTCLDY    29  23  78 CALM      30.21R
WENATCHEE      MOCLDY    32  30  92 E7        30.20R FOG
ELLENSBURG     PTCLDY    36  32  85 E5        30.14R
YAKIMA         PTCLDY    28  25  88 W6        30.18R FOG
SUNNYSIDE ARPT FOG       32  32 100 CALM      30.20  VSB 1/4
YAKIMA TC      FAIR      32  29  90 CALM      30.15S
$$

WAZ028-034-035-131200-
COLUMBIA BASIN

CITY           SKY/WX    TMP DP  RH WIND       PRES   REMARKS
EPHRATA        CLOUDY    35  33  92 N9        30.20S FOG
MOSES LAKE     CLOUDY    36  34  92 NE6       30.21S FOG
PASCO          CLOUDY    35  33  92 NW6       30.22S FOG
RICHLAND ARPT  CLOUDY    37  37  99 CALM      30.23S FOG
HERMISTON, OR  FOG       35  33  92 CALM      30.17S VSB<1/4
$$

WAZ036>038-131200-
NORTHEAST WASHINGTON

CITY           SKY/WX    TMP DP  RH WIND       PRES   REMARKS
SPOKANE GEIGER CLOUDY    34  32  92 E3        30.17R FOG
SPOKANE FELTS  CLOUDY    36  34  92 CALM      30.19S
FAIRCHILD AFB  CLOUDY    33  33 100 SE3       30.16S FOG
COEURDALENE,ID MOCLDY    33  32  96 NE6       30.18F
DEER PARK      CLOUDY    35  33  92 NE6       30.19S
$$

WAZ029>033-131200-
SOUTHEAST WASHINGTON

CITY           SKY/WX    TMP DP  RH WIND       PRES   REMARKS
PULLMAN        CLOUDY    39  38  96 E13       30.17S
LEWISTON, ID   CLOUDY    41  37  86 S3        30.19S
WALLA WALLA    FOG       32  32 100 S8        30.16F VSB 1/4
PENDLETON, OR  CLEAR     41  40  96 E3        30.14S FOG
$$




USA.gov is the U.S. government's official web portal to all federal, state and local government web resources and services.